Bloomington, IN

10:59 AM EDT on May 27, 2018 (GMT -0400)
Monroe County

Weather History for KBMG - October, 2011

Change the Weather History Date:

Sunday, October 16, 2011

  Actual Average Record
Temperature  
Mean Temperature 65 °F 55 °F  
Max Temperature 79 °F 67 °F 80 °F (2016)
Min Temperature 50 °F 42 °F 32 °F (2010)
Degree Days  
Heating Degree Days 0 11  
Month to date heating degree days 86 141  
Since 1 July heating degree days 189 226  
Cooling Degree Days 0 0  
Month to date cooling degree days 0 11  
Year to date cooling degree days 1170 924  
Growing Degree Days 14 (Base 50)    
Moisture  
Dew Point 41 °F    
Average Humidity 48    
Maximum Humidity 63    
Minimum Humidity 33    
Precipitation  
Precipitation 0.00 in 0.13 in 1.64 in (2006)
Month to date precipitation 0.45 1.83  
Year to date precipitation 44.33 38.37  
Sea Level Pressure  
Sea Level Pressure 29.88 in    
Wind  
Wind Speed 11 mph (WSW)    
Max Wind Speed 26 mph    
Max Gust Speed 37 mph    
Visibility 10 miles    
Events      
T = Trace of Precipitation, MM = Missing Value Source: NWS Daily Summary

Daily Weather History Graph

Daily Weather History Graph

Search for Another Location

Airport or City:

Astronomy

Oct. 16, 2011 Rise Set
Actual Time 7:56 AM EDT 7:06 PM EDT
Civil Twilight 7:29 AM EDT 7:33 PM EDT
Nautical Twilight 6:58 AM EDT 8:04 PM EDT
Astronomical Twilight 6:27 AM EDT 8:35 PM EDT
Moon 9:54 PM EDT (10/16) 12:11 PM EDT (10/16)
Length of Visible Light 12h 03m
Length of Day
11h 09m
Waning Gibbous, 82% of the Moon is Illuminated
Oct 16
Waning Gibbous
Oct 19
Last Quarter
Oct 26
New
Nov 2
First Quarter
Nov 10
Full

Hourly Weather History & Observations

Time (EDT) Temp. Dew Point Humidity Pressure Visibility Wind Dir Wind Speed Gust Speed Precip Events Conditions
12:53 AM 51.1 °F 37.0 °F 59% 30.00 in 10.0 mi WSW 6.9 mph - N/A   Clear
2:53 AM 54.0 °F 39.0 °F 57% 29.99 in 10.0 mi SW 5.8 mph - N/A   Overcast
3:53 AM 53.1 °F 39.0 °F 59% 29.98 in 10.0 mi Calm Calm - N/A   Overcast
4:53 AM 54.0 °F 39.0 °F 57% 29.96 in 10.0 mi South 6.9 mph - N/A   Overcast
5:53 AM 57.9 °F 36.0 °F 44% 29.92 in 10.0 mi SSW 8.1 mph - N/A   Mostly Cloudy
7:53 AM 62.1 °F 37.0 °F 39% 29.91 in 10.0 mi SW 11.5 mph 20.7 mph N/A   Overcast
8:53 AM 61.0 °F 37.0 °F 41% 29.90 in 10.0 mi SW 17.3 mph 26.5 mph N/A   Overcast
9:53 AM 62.1 °F 39.9 °F 44% 29.89 in 10.0 mi SW 16.1 mph 27.6 mph N/A   Overcast
10:53 AM 66.9 °F 42.1 °F 40% 29.88 in 10.0 mi WSW 13.8 mph 28.8 mph N/A   Clear
11:53 AM 72.0 °F 44.1 °F 37% 29.85 in 10.0 mi WSW 18.4 mph 31.1 mph N/A   Clear
12:53 PM 75.0 °F 45.0 °F 34% 29.83 in 10.0 mi WSW 15.0 mph 31.1 mph N/A   Clear
1:53 PM 77.0 °F 46.0 °F 33% 29.80 in 10.0 mi West 16.1 mph 34.5 mph N/A   Clear
3:53 PM 77.0 °F 46.9 °F 34% 29.77 in 10.0 mi West 20.7 mph 34.5 mph N/A   Clear
4:53 PM 75.0 °F 48.0 °F 38% 29.77 in 10.0 mi WSW 12.7 mph 23.0 mph N/A   Clear
5:53 PM 75.0 °F 48.0 °F 38% 29.78 in 10.0 mi West 9.2 mph 19.6 mph N/A   Clear
6:53 PM 70.0 °F 48.9 °F 47% 29.81 in 10.0 mi NW 12.7 mph 20.7 mph N/A   Clear
8:53 PM 62.1 °F 39.9 °F 44% 29.87 in 10.0 mi WNW 9.2 mph 21.9 mph N/A   Partly Cloudy
9:53 PM 60.1 °F 39.0 °F 46% 29.89 in 10.0 mi NW 5.8 mph - N/A   Overcast
10:53 PM 57.9 °F 37.0 °F 46% 29.90 in 10.0 mi NW 5.8 mph - N/A   Overcast
11:53 PM 55.9 °F 37.0 °F 49% 29.92 in 10.0 mi WNW 5.8 mph - N/A   Overcast